Location: Shepherdstown, WV
(39.4326°N, 77.8042°W)
Time: 16:04:13
(UTC-04:00)

Tiros 1 despin weight - Pass Details

Date: 10 August 2021
Orbit: 593 x 641 km, 48.2° (Epoch: 18 September)

Event Time Altitude Azimuth Distance (km) Brightness Sun altitude
Rises 15:50:00 0° 302° (WNW) 2,937 ? 48.7°
Reaches altitude 10° 15:52:23 10° 306° (NW) 2,029 ? 48.3°
Maximum altitude 15:57:00 57° 26° (NNE) 753 ? 47.5°
Drops below altitude 10° 16:01:36 10° 105° (ESE) 2,024 ? 46.7°
Sets 16:03:57 0° 110° (ESE) 2,928 ? 46.3°
